Weather History for Hannibal Rgnl AP, Hannibal, M, MO

Change the Weather History Date:

Monday, May 12, 2014

  Actual Average Record
Temperature  
Mean Temperature 76 °F -  
Max Temperature 87 °F 72 °F 87 °F (2014)
Min Temperature 62 °F 52 °F 37 °F (2013)
Cooling Degree Days 10    
Growing Degree Days 26 (Base 50)    
Moisture  
Dew Point 64 °F    
Average Humidity 68    
Maximum Humidity 94    
Minimum Humidity 38    
Precipitation  
Precipitation 0.57 in - - ()
Sea Level Pressure  
Sea Level Pressure 29.84 in    
Wind  
Wind Speed 12 mph (South)    
Max Wind Speed 23 mph    
Max Gust Speed 30 mph    
Visibility 10 miles    
Events Rain , Thunderstorm    
Averages and records for this station are not official NWS values.
T = Trace of Precipitation, MM = Missing Value Source: NWS Daily Summary

Daily Weather History Graph

Daily Weather History Graph

Search for Another Location

Airport:

Trip Planner

Search our weather history database for the weather conditions in past years. The results will help you decide how hot, cold, wet, or windy it might be!

Date:

Astronomy

May. 12, 2014 Rise Set
Actual Time 5:54 AM CDT 8:10 PM CDT
Civil Twilight 5:23 AM CDT 8:41 PM CDT
Nautical Twilight 4:46 AM CDT 9:18 PM CDT
Astronomical Twilight 4:05 AM CDT 9:59 PM CDT
Moon 6:09 PM CDT (5/12) 4:32 AM CDT (5/12)
Length of Visible Light 15h 17m
Length of Day
14h 16m
Waxing Gibbous, 95% of the Moon is Illuminated
May 12
Waxing Gibbous
May 14
Full
May 21
Last Quarter
May 28
New
Jun 5
First Quarter

Hourly Weather History & Observations

Time (CDT) Temp. Heat Index Dew Point Humidity Pressure Visibility Wind Dir Wind Speed Gust Speed Precip Events Conditions
12:15 AM 75.2 °F - 62.6 °F 65% 29.83 in 10.0 mi South 15.0 mph - N/A   Clear
12:55 AM 75.2 °F - 64.4 °F 69% 29.83 in 10.0 mi South 12.7 mph 17.3 mph N/A   Clear
1:15 AM 73.4 °F - 64.4 °F 73% 29.83 in 10.0 mi South 10.4 mph 18.4 mph N/A   Clear
1:35 AM 73.4 °F - 64.4 °F 73% 29.83 in 10.0 mi South 10.4 mph - N/A   Clear
1:55 AM 73.4 °F - 64.4 °F 73% 29.82 in 10.0 mi SSE 11.5 mph - N/A   Clear
2:15 AM 73.4 °F - 64.4 °F 73% 29.82 in 10.0 mi SSE 10.4 mph - N/A   Clear
2:35 AM 73.4 °F - 64.4 °F 73% 29.83 in 10.0 mi South 13.8 mph - N/A   Clear
2:55 AM 73.4 °F - 64.4 °F 73% 29.81 in 10.0 mi SSE 9.2 mph - N/A   Clear
3:15 AM 73.4 °F - 64.4 °F 73% 29.81 in 10.0 mi SSE 6.9 mph - N/A   Clear
3:35 AM 73.4 °F - 64.4 °F 73% 29.81 in 10.0 mi SSE 9.2 mph - N/A   Clear
3:55 AM 73.4 °F - 64.4 °F 73% 29.82 in 10.0 mi SSE 8.1 mph - N/A   Clear
4:15 AM 71.6 °F - 64.4 °F 78% 29.82 in 10.0 mi SSE 8.1 mph - N/A   Clear
4:35 AM 71.6 °F - 64.4 °F 78% 29.83 in 10.0 mi South 10.4 mph - N/A   Clear
4:55 AM 71.6 °F - 66.2 °F 83% 29.84 in 10.0 mi SSE 8.1 mph - N/A   Clear
5:15 AM 71.6 °F - 66.2 °F 83% 29.84 in 10.0 mi SSE 8.1 mph - N/A   Clear
5:35 AM 71.6 °F - 66.2 °F 83% 29.84 in 10.0 mi SSE 8.1 mph - N/A   Clear
5:55 AM 71.6 °F - 66.2 °F 83% 29.84 in 10.0 mi SSE 8.1 mph - N/A   Clear
6:15 AM 71.6 °F - 66.2 °F 83% 29.83 in 10.0 mi SSE 8.1 mph - N/A   Clear
6:35 AM 71.6 °F - 66.2 °F 83% 29.84 in 10.0 mi SSE 9.2 mph - N/A   Clear
6:55 AM 71.6 °F - 66.2 °F 83% 29.85 in 10.0 mi SSE 10.4 mph - N/A   Clear
7:15 AM 73.4 °F - 66.2 °F 78% 29.85 in 10.0 mi South 11.5 mph 17.3 mph N/A   Scattered Clouds
7:35 AM 73.4 °F - 66.2 °F 78% 29.86 in 10.0 mi South 13.8 mph 20.7 mph N/A   Scattered Clouds
7:55 AM 73.4 °F - 64.4 °F 73% 29.86 in 10.0 mi South 13.8 mph 23.0 mph N/A   Mostly Cloudy
8:15 AM 73.4 °F - 64.4 °F 73% 29.86 in 10.0 mi South 15.0 mph 24.2 mph N/A   Mostly Cloudy
8:35 AM 77.0 °F - 64.4 °F 65% 29.85 in 10.0 mi South 18.4 mph 25.3 mph N/A   Scattered Clouds
9:15 AM 78.8 °F - 64.4 °F 61% 29.85 in 10.0 mi South 19.6 mph 29.9 mph N/A   Clear
9:35 AM 78.8 °F - 64.4 °F 61% 29.85 in 10.0 mi South 23.0 mph 28.8 mph N/A   Clear
9:55 AM 80.6 °F 82.3 °F 64.4 °F 58% 29.84 in 10.0 mi South 21.9 mph 27.6 mph N/A   Clear
10:15 AM 80.6 °F 82.3 °F 64.4 °F 58% 29.86 in 10.0 mi South 19.6 mph 27.6 mph N/A   Scattered Clouds
10:35 AM 80.6 °F 82.3 °F 64.4 °F 58% 29.87 in 10.0 mi SSW 17.3 mph 26.5 mph N/A   Mostly Cloudy
10:55 AM 80.6 °F 82.3 °F 64.4 °F 58% 29.87 in 10.0 mi SSW 16.1 mph 25.3 mph N/A   Overcast
11:15 AM 80.6 °F 82.3 °F 64.4 °F 58% 29.88 in 10.0 mi SSW 15.0 mph 26.5 mph N/A   Overcast
11:35 AM 80.6 °F 82.3 °F 64.4 °F 58% 29.88 in 10.0 mi SSW 16.1 mph 24.2 mph N/A   Overcast
11:55 AM 84.2 °F 85.6 °F 64.4 °F 51% 29.88 in 10.0 mi SSW 17.3 mph 23.0 mph N/A   Mostly Cloudy
12:15 PM 82.4 °F 83.9 °F 64.4 °F 54% 29.87 in 10.0 mi South 15.0 mph 24.2 mph N/A   Mostly Cloudy
12:35 PM 82.4 °F 83.9 °F 64.4 °F 54% 29.86 in 10.0 mi South 17.3 mph 23.0 mph N/A   Mostly Cloudy
12:55 PM 86.0 °F 86.6 °F 62.6 °F 45% 29.85 in 10.0 mi SSW 17.3 mph 24.2 mph N/A   Mostly Cloudy
1:15 PM 86.0 °F 86.6 °F 62.6 °F 45% 29.85 in 10.0 mi South 17.3 mph 25.3 mph N/A   Scattered Clouds
1:35 PM 86.0 °F 86.6 °F 62.6 °F 45% 29.85 in 10.0 mi South 20.7 mph 26.5 mph N/A   Scattered Clouds
2:55 PM 86.0 °F 86.1 °F 60.8 °F 43% 29.80 in 10.0 mi SSW 15.0 mph 20.7 mph N/A   Scattered Clouds
3:15 PM 87.8 °F 87.6 °F 60.8 °F 40% 29.79 in 10.0 mi SSW 16.1 mph 23.0 mph N/A   Clear
3:35 PM 87.8 °F 87.1 °F 59.0 °F 38% 29.79 in 10.0 mi SSW 16.1 mph 24.2 mph N/A   Clear
3:55 PM 86.0 °F 86.1 °F 60.8 °F 43% 29.78 in 10.0 mi South 18.4 mph 21.9 mph N/A   Scattered Clouds
4:15 PM 87.8 °F 88.5 °F 62.6 °F 43% 29.78 in 10.0 mi South 17.3 mph 21.9 mph N/A   Scattered Clouds
4:35 PM 86.0 °F 86.1 °F 60.8 °F 43% 29.78 in 10.0 mi South 11.5 mph - N/A   Scattered Clouds
4:55 PM 86.0 °F 86.1 °F 60.8 °F 43% 29.77 in 10.0 mi South 15.0 mph - N/A Thunderstorm Scattered Clouds
5:15 PM 86.0 °F 86.1 °F 60.8 °F 43% 29.77 in 10.0 mi South 15.0 mph 20.7 mph N/A   Scattered Clouds
5:35 PM 84.2 °F 84.4 °F 60.8 °F 45% 29.75 in 10.0 mi SSE 11.5 mph 19.6 mph N/A   Mostly Cloudy
5:55 PM 84.2 °F 84.4 °F 60.8 °F 45% 29.75 in 10.0 mi SSE 10.4 mph 17.3 mph N/A   Scattered Clouds
6:15 PM 82.4 °F 82.9 °F 60.8 °F 48% 29.74 in 10.0 mi SSE 9.2 mph 19.6 mph N/A Thunderstorm Thunderstorm
6:35 PM 82.4 °F 83.4 °F 62.6 °F 51% 29.75 in 10.0 mi South 12.7 mph 19.6 mph N/A Thunderstorm Mostly Cloudy
6:55 PM 73.4 °F - 62.6 °F 69% 29.80 in 10.0 mi West 16.1 mph 29.9 mph 0.01 in Thunderstorm Thunderstorm
7:15 PM 69.8 °F - 64.4 °F 83% 29.85 in 3.0 mi SW 12.7 mph 27.6 mph 0.20 in Rain , Thunderstorm Heavy Thunderstorms and Rain
7:35 PM 68.0 °F - 62.6 °F 83% 29.82 in 5.0 mi Calm Calm - 0.28 in Rain , Thunderstorm Light Thunderstorms and Rain
7:55 PM 68.0 °F - 64.4 °F 88% 29.84 in 10.0 mi SSE 9.2 mph - 0.29 in Rain , Thunderstorm Light Thunderstorms and Rain
8:15 PM 68.0 °F - 62.6 °F 83% 29.85 in 10.0 mi SSE 8.1 mph - 0.01 in Rain , Thunderstorm Light Thunderstorms and Rain
8:35 PM 68.0 °F - 64.4 °F 88% 29.89 in 7.0 mi SSE 8.1 mph - 0.04 in Rain , Thunderstorm Light Thunderstorms and Rain
8:55 PM 68.0 °F - 64.4 °F 88% 29.89 in 7.0 mi Calm Calm - 0.10 in Rain , Thunderstorm Light Thunderstorms and Rain
9:15 PM 68.0 °F - 64.4 °F 88% 29.90 in 2.5 mi Calm Calm - 0.08 in Rain , Thunderstorm Thunderstorms and Rain
9:35 PM 68.0 °F - 64.4 °F 88% 29.90 in 7.0 mi SW 3.5 mph - 0.11 in Rain Light Rain
9:55 PM 68.0 °F - 64.4 °F 88% 29.90 in 7.0 mi Calm Calm - 0.14 in Rain Light Rain
10:15 PM 66.2 °F - 64.4 °F 94% 29.89 in 10.0 mi West 6.9 mph - 0.01 in Rain Light Rain
10:35 PM 64.4 °F - 62.6 °F 94% 29.88 in 10.0 mi WNW 5.8 mph - 0.02 in Rain Rain
10:55 PM 64.4 °F - 62.6 °F 94% 29.87 in 10.0 mi Calm Calm - 0.02 in   Light Drizzle
11:15 PM 64.4 °F - 62.6 °F 94% 29.88 in 10.0 mi West 4.6 mph - N/A Rain Rain
11:55 PM 62.6 °F - 59.0 °F 88% 29.90 in 10.0 mi West 15.0 mph 19.6 mph 0.01 in Rain Rain